User: anonymous   Login
Location: Caltech
(34.1382°N, 118.1253°W)
Time: 19:13:39
(UTC-07:00)
Language:

Uribyol 2 - Orbit

View from above orbital plane
View from above orbital plane
View from above satellite
View from above satellite

Ground track
Ground track

The orbit data is extracted from the following two-line orbital elements,

1 22828U 93061F   15188.48014165  .00000101  00000-0  55808-4 0  9995
2 22828 098.6954 137.8991 0009265 205.5050 154.5677 14.30514718104321
Epoch (UTC): 07 July 2015 11:31:24
Eccentricity: 0.0009265
inclination: 98.6954°
perigee height: 783 km
apogee height: 796 km
right ascension of ascending node: 137.8991°
argument of perigee: 205.5050°
revolutions per day: 14.30514718
mean anomaly at epoch: 154.5677°
orbit number at epoch: 10432

The dashed part of the orbit path shows where the satellite is in the earth's shadow,  

DLR